Regional Weather Roundup
Issued by NWS

Home | Current Version | Previous Version | Text Only | Print | Product List | Glossary On
Versions: 1 2 3 4 5 6 7 8 9 10 11 12 13 14 15 16 17 18 19 20 21 22 23 24 25 26 27
000
ASUS42 KFFC 260303
RWRGA
WEATHER ROUNDUP FOR GEORGIA
NATIONAL WEATHER SERVICE PEACHTREE CITY GA
1100 PM EDT SAT OCT 25 2014

NOTE: "FAIR" INDICATES FEW OR NO CLOUDS BELOW 12,000 FEET WITH NO
SIGNIFICANT WEATHER AND/OR OBSTRUCTIONS TO VISIBILITY.

* = USE WITH CAUTION. THE STATIONS MARKED WITH AN ASTERISK MAY NOT
REPORT WEATHER SUCH AS PRECIPITATION, FOG, OR THUNDER AND ARE NOT
QUALITY CONTROLLED BY NWS.

THE REMARK "TC" DENOTES TEMPERATURE READING IN DEGREES CELSIUS.

GAZ001>058-260400-
NORTH GEORGIA

CITY           SKY/WX    TMP DP  RH WIND       PRES   REMARKS
ATLANTA        CLEAR     63  50  62 NW6       30.05R
ATHENS         CLEAR     61  50  67 W6        30.01R
CHAMBLEE       CLEAR     55  49  80 CALM      30.04S
PEACHTREE CITY CLEAR     54  51  90 CALM      30.06R
ROME           CLEAR     58  54  86 CALM      30.05R
WEST ATLANTA   CLEAR     58  52  80 CALM      30.04S
GAINESVILLE    CLEAR     61  51  70 W5        30.05S
CARTERSVILLE   CLEAR     56  52  86 CALM      30.06S


CITY           SKY/WX    TMP DP  RH WIND       PRES   REMARKS
DALTON*        CLEAR     54  54 100 CALM      30.05S
MARIETTA       CLEAR     60  53  76 W7        30.04F
KENNESAW*      CLEAR     57  48  72 W3        30.07S
$$

GAZ059>098-102>109-260400-
CENTRAL GEORGIA

CITY           SKY/WX    TMP DP  RH WIND       PRES   REMARKS
AUGUSTA-BUSH   CLEAR     48  44  86 CALM      29.99S
AUGUSTA-DANIEL CLEAR     64  45  49 CALM      30.00S
COLUMBUS       CLEAR     64  50  60 N5        30.05R
MACON          CLEAR     53  51  93 W5        30.02R
ROBINS AFB     CLEAR     54  52  94 CALM      29.99F


CITY           SKY/WX    TMP DP  RH WIND       PRES   REMARKS
LAGRANGE*      CLEAR     57  54  92 CALM      30.06S
SYLVANIA*      CLEAR     57  56  94 CALM      30.01S
MILLEDGEVILLE* CLEAR     54  54 100 CALM      30.02S
$$

GAZ099>101-110>166-260400-
SOUTH GEORGIA

CITY           SKY/WX    TMP DP  RH WIND       PRES   REMARKS
SAVANNAH       CLEAR     57  51  80 CALM      30.00R
VALDOSTA       CLEAR     52  44  74 CALM      30.03S
ALMA           CLEAR     51  49  92 CALM      30.01S FOG
ST SIMONS      CLEAR     57  53  86 CALM      30.00F
FT STEWART     CLEAR     53  49  86 CALM      29.99S
ALBANY         CLEAR     55  50  83 CALM      30.06R
HUNTER AFB     CLEAR     55  52  88 CALM      29.98R
MOODY AFB      CLEAR     57  47  70 SW1       30.02F
BRUNSWICK      CLEAR     54  52  94 CALM      30.01F


CITY           SKY/WX    TMP DP  RH WIND       PRES   REMARKS
BAINBRIDGE*    CLEAR     59  52  77 CALM      30.05S
MOULTRIE*      CLEAR     55  52  88 CALM      30.05S
VIDALIA*       CLEAR     57  52  82 CALM      30.01F
WAYCROSS*      CLEAR     57  54  91 CALM      30.02S
DOUGLAS*       CLEAR     55  50  82 CALM      30.04R
$$



USA.gov is the U.S. government's official web portal to all federal, state and local government web resources and services.